Location: Kosice
(0.0000°N, 21.2500°E)
Time: 18:24:35
(UTC+01:00)

Palapa 6 Rocket - Pass Details

Date: 24 January 2021
Orbit: 485 x 1216 km, 22.8° (Epoch: 01 March)

Event Time Altitude Azimuth Distance (km) Brightness Sun altitude
Rises 19:09:42 0° 286° (WNW) 3,489 7.8 -19.4°
Reaches altitude 10° 19:12:36 10° 282° (WNW) 2,419 6.9 -20.1°
Maximum altitude 19:18:08 53° 206° (SSW) 859 3.9 -21.4°
Enters shadow 19:20:38 26° 140° (SE) 1,290 4.5 -22.0°
